North Clarendon, VT

1:29 PM EDT on August 24, 2016 (GMT -0400)
Rutland State

Weather History for KRUT - October, 2011

Change the Weather History Date:

Saturday, October 15, 2011

  Actual Average Record
Temperature  
Mean Temperature 52 °F -  
Max Temperature 57 °F - 82 °F (1956)
Min Temperature 46 °F - 26 °F (1980)
Degree Days  
Heating Degree Days 13    
Month to date heating degree days 171  
Since 1 July heating degree days 309  
Cooling Degree Days 0    
Month to date cooling degree days 0  
Year to date cooling degree days 348  
Growing Degree Days 2 (Base 50)    
Moisture  
Dew Point 41 °F    
Average Humidity 65    
Maximum Humidity 83    
Minimum Humidity 47    
Precipitation  
Precipitation 0.23 in - 2.14 in (2010)
Month to date precipitation 2.03  
Year to date precipitation 29.60  
Sea Level Pressure  
Sea Level Pressure 29.43 in    
Wind  
Wind Speed 13 mph (SW)    
Max Wind Speed 21 mph    
Max Gust Speed 33 mph    
Visibility 10 miles    
Events Thunderstorm    
T = Trace of Precipitation, MM = Missing Value Source: NWS Daily Summary

Daily Weather History Graph

Daily Weather History Graph

Search for Another Location

Airport or City:

Trip Planner

Search our weather history database for the weather conditions in past years. The results will help you decide how hot, cold, wet, or windy it might be!

Date:

Astronomy

Oct. 15, 2011 Rise Set
Actual Time 7:05 AM EDT 6:09 PM EDT
Civil Twilight 6:36 AM EDT 6:37 PM EDT
Nautical Twilight 6:03 AM EDT 7:10 PM EDT
Astronomical Twilight 5:30 AM EDT 7:44 PM EDT
Moon 7:56 PM EDT (10/15) 10:34 AM EDT (10/15)
Length of Visible Light 12h 01m
Length of Day
11h 03m
Waning Gibbous, 89% of the Moon is Illuminated
Oct 15
Waning Gibbous
Oct 19
Last Quarter
Oct 26
New
Nov 2
First Quarter
Nov 10
Full

Hourly Weather History & Observations

Time (EDT) Temp. Windchill Dew Point Humidity Pressure Visibility Wind Dir Wind Speed Gust Speed Precip Events Conditions
12:15 AM 55.4 °F - 50.0 °F 82% 29.29 in 5.0 mi SW 13.8 mph 20.7 mph 0.01 in   Overcast
12:35 AM 55.4 °F - 48.2 °F 77% 29.31 in 7.0 mi SW 11.5 mph 29.9 mph 0.01 in   Overcast
12:55 AM 53.6 °F - 48.2 °F 82% 29.31 in 10.0 mi SSW 10.4 mph 21.9 mph 0.01 in   Overcast
1:15 AM 53.6 °F - 48.2 °F 82% 29.32 in 10.0 mi SW 11.5 mph 17.3 mph N/A   Overcast
1:35 AM 53.6 °F - 48.2 °F 82% 29.33 in 10.0 mi SSW 10.4 mph 20.7 mph N/A   Overcast
2:15 AM 53.6 °F - 46.4 °F 77% 29.34 in 10.0 mi SW 16.1 mph 23.0 mph N/A   Overcast
2:35 AM 53.6 °F - 46.4 °F 77% 29.34 in 10.0 mi SW 15.0 mph 26.5 mph N/A   Overcast
2:55 AM 53.6 °F - 46.4 °F 77% 29.34 in 10.0 mi SW 17.3 mph 24.2 mph N/A   Overcast
3:15 AM 53.6 °F - 46.4 °F 77% 29.35 in 10.0 mi SW 20.7 mph 26.5 mph N/A   Overcast
3:35 AM 53.6 °F - 46.4 °F 77% 29.36 in 10.0 mi SW 17.3 mph 24.2 mph 0.01 in   Overcast
3:55 AM 51.8 °F - 44.6 °F 76% 29.37 in 10.0 mi SW 15.0 mph 24.2 mph 0.01 in   Overcast
4:15 AM 51.8 °F - 44.6 °F 76% 29.38 in 10.0 mi SW 10.4 mph 23.0 mph 0.02 in   Overcast
4:35 AM 51.8 °F - 44.6 °F 76% 29.40 in 10.0 mi SW 15.0 mph 29.9 mph 0.02 in   Mostly Cloudy
5:15 AM 51.8 °F - 42.8 °F 71% 29.41 in 10.0 mi SW 11.5 mph 23.0 mph N/A   Overcast
5:55 AM 51.8 °F - 42.8 °F 71% 29.42 in 10.0 mi SW 16.1 mph 23.0 mph N/A   Overcast
6:15 AM 51.8 °F - 41.0 °F 67% 29.42 in 10.0 mi SSW 11.5 mph 24.2 mph N/A   Overcast
6:35 AM 51.8 °F - 39.2 °F 62% 29.42 in 10.0 mi SW 17.3 mph 32.2 mph N/A   Overcast
6:55 AM 51.8 °F - 39.2 °F 62% 29.43 in 10.0 mi WSW 18.4 mph 28.8 mph N/A   Mostly Cloudy
7:15 AM 51.8 °F - 39.2 °F 62% 29.44 in 10.0 mi SSW 15.0 mph 28.8 mph N/A   Mostly Cloudy
7:35 AM 51.8 °F - 39.2 °F 62% 29.45 in 10.0 mi SW 11.5 mph 20.7 mph N/A   Partly Cloudy
8:15 AM 51.8 °F - 39.2 °F 62% 29.46 in 10.0 mi SSW 8.1 mph 17.3 mph N/A   Mostly Cloudy
8:35 AM 51.8 °F - 39.2 °F 62% 29.46 in 10.0 mi SW 13.8 mph 18.4 mph N/A   Overcast
9:15 AM 51.8 °F - 39.2 °F 62% 29.47 in 10.0 mi SW 13.8 mph 19.6 mph N/A   Overcast
9:35 AM 51.8 °F - 39.2 °F 62% 29.47 in 10.0 mi SSW 13.8 mph 21.9 mph N/A   Overcast
9:55 AM 51.8 °F - 39.2 °F 62% 29.47 in 10.0 mi SSW 9.2 mph 20.7 mph N/A   Overcast
10:35 AM 53.6 °F - 39.2 °F 58% 29.47 in 10.0 mi South 8.1 mph 20.7 mph N/A   Overcast
10:55 AM 53.6 °F - 39.2 °F 58% 29.47 in 10.0 mi SSW 3.5 mph 18.4 mph N/A   Overcast
11:15 AM 55.4 °F - 39.2 °F 54% 29.47 in 10.0 mi SSW 11.5 mph 19.6 mph N/A   Mostly Cloudy
11:35 AM 55.4 °F - 39.2 °F 54% 29.47 in 10.0 mi WSW 12.7 mph 21.9 mph N/A   Overcast
12:35 PM 55.4 °F - 39.2 °F 54% 29.46 in 10.0 mi SSW 16.1 mph 23.0 mph N/A   Overcast
12:55 PM 55.4 °F - 37.4 °F 51% 29.45 in 10.0 mi SSW 13.8 mph 23.0 mph N/A   Overcast
1:35 PM 57.2 °F - 37.4 °F 48% 29.44 in 10.0 mi SSW 13.8 mph 27.6 mph N/A   Mostly Cloudy
1:55 PM 57.2 °F - 37.4 °F 48% 29.43 in 10.0 mi SSW 20.7 mph 28.8 mph N/A   Mostly Cloudy
2:15 PM 57.2 °F - 37.4 °F 48% 29.43 in 10.0 mi SW 13.8 mph 28.8 mph N/A   Mostly Cloudy
2:35 PM 55.4 °F - 37.4 °F 51% 29.44 in 10.0 mi SSW 12.7 mph 26.5 mph N/A   Overcast
2:55 PM 55.4 °F - 39.2 °F 54% 29.44 in 10.0 mi SSW 15.0 mph 28.8 mph N/A   Overcast
3:15 PM 55.4 °F - 37.4 °F 51% 29.43 in 10.0 mi SSW 17.3 mph 28.8 mph N/A   Mostly Cloudy
3:35 PM 55.4 °F - 39.2 °F 54% 29.44 in 10.0 mi SSW 17.3 mph 24.2 mph N/A   Mostly Cloudy
3:55 PM 53.6 °F - 39.2 °F 58% 29.45 in 10.0 mi SSE 10.4 mph 24.2 mph N/A   Scattered Clouds
4:15 PM 53.6 °F - 41.0 °F 62% 29.44 in 10.0 mi South 9.2 mph - N/A   Clear
4:35 PM 53.6 °F - 41.0 °F 62% 29.44 in 10.0 mi South 12.7 mph 18.4 mph N/A   Mostly Cloudy
4:55 PM 51.8 °F - 41.0 °F 67% 29.44 in 10.0 mi South 11.5 mph 18.4 mph N/A   Overcast
5:15 PM 50.0 °F - 41.0 °F 71% 29.50 in 7.0 mi SW 17.3 mph 32.2 mph 0.03 in Thunderstorm Mostly Cloudy
5:35 PM 48.2 °F - 39.2 °F 71% 29.50 in 10.0 mi SW 8.1 mph 25.3 mph 0.03 in   Mostly Cloudy
6:15 PM 48.2 °F - 39.2 °F 71% 29.52 in 10.0 mi SW 8.1 mph 21.9 mph N/A   Mostly Cloudy
6:35 PM 50.0 °F - 39.2 °F 66% 29.52 in 10.0 mi SW 8.1 mph - N/A   Overcast
6:55 PM 50.0 °F - 39.2 °F 66% 29.52 in 10.0 mi SSW 11.5 mph 18.4 mph N/A   Overcast
7:15 PM 51.8 °F - 37.4 °F 58% 29.53 in 10.0 mi SW 10.4 mph 21.9 mph N/A   Overcast
7:35 PM 48.2 °F - 39.2 °F 71% 29.54 in 10.0 mi SW 16.1 mph 21.9 mph 0.02 in   Overcast
7:55 PM 50.0 °F - 39.2 °F 66% 29.53 in 10.0 mi SSW 10.4 mph 26.5 mph 0.02 in   Overcast
8:15 PM 48.2 °F - 39.2 °F 71% 29.54 in 10.0 mi WSW 16.1 mph 23.0 mph 0.01 in   Overcast
8:35 PM 48.2 °F - 39.2 °F 71% 29.55 in 10.0 mi WSW 16.1 mph 25.3 mph 0.03 in   Overcast
8:55 PM 48.2 °F - 42.8 °F 82% 29.56 in 10.0 mi West 10.4 mph 21.9 mph 0.08 in   Overcast
9:15 PM 46.4 °F 41.9 °F 42.8 °F 87% 29.57 in 10.0 mi West 9.2 mph - 0.04 in   Mostly Cloudy
9:35 PM 46.4 °F 41.1 °F 41.0 °F 81% 29.58 in 9.0 mi WSW 11.5 mph 23.0 mph 0.07 in   Overcast
9:55 PM 48.2 °F - 39.2 °F 71% 29.59 in 10.0 mi SW 10.4 mph 26.5 mph 0.07 in   Overcast
10:15 PM 46.4 °F 40.4 °F 41.0 °F 81% 29.58 in 10.0 mi SSW 13.8 mph 19.6 mph N/A   Overcast
10:35 PM 48.2 °F - 39.2 °F 71% 29.59 in 10.0 mi SW 20.7 mph 33.4 mph N/A   Overcast
10:55 PM 48.2 °F - 37.4 °F 66% 29.59 in 10.0 mi SW 12.7 mph 33.4 mph N/A   Overcast
11:15 PM 48.2 °F - 37.4 °F 66% 29.60 in 10.0 mi SW 12.7 mph 29.9 mph N/A   Overcast
11:35 PM 48.2 °F - 37.4 °F 66% 29.60 in 10.0 mi SW 21.9 mph 32.2 mph N/A   Overcast
11:55 PM 48.2 °F - 39.2 °F 71% 29.60 in 10.0 mi SW 13.8 mph 26.5 mph N/A   Overcast